Regional Weather Roundup
Issued by NWS Grand Forks, ND

Home | Current Version | Previous Version | Graphics & Text | Print | Product List | Glossary On
Versions: 1 2 3 4 5 6 7 8 9 10 11 12 13 14 15 16 17 18 19 20 21 22 23 24 25 26 27 28 29 30 31 32 33 34 35 36 37 38 39 40 41 42 43 44 45 46 47 48 49 50
000
ASUS43 KFGF 230631
RWRFGF
PRAIRIE TO PINES  WEATHER ROUNDUP
NATIONAL WEATHER SERVICE EASTERN NORTH DAKOTA/GRAND FORKS ND
100 AM CDT TUE SEP 23 2014

 **SATELLITE DATA USED TO AUGMENT SKY COVER AT AUTOMATED STATIONS**
 *****  WEATHER ACROSS EASTERN NORTH DAKOTA  *****

CITY           SKY/WX    TMP DP  RH WIND       PRES   REMARKS
GRAND FORKS    CLEAR     54  48  80 SE7       30.03S
6HR MIN TEMP:  50; 6HR MAX TEMP:  70;

GRAND FRKS AFB CLEAR     53  49  86 SE7       30.03S
GRAND FRKS NWS   N/A     55 N/A N/A SE10        N/A
DEVILS LAKE    CLEAR     57  46  67 SE9       29.98S
6HR MIN TEMP:  57; 6HR MAX TEMP:  72;

FARGO          CLEAR     61  48  62 SE12      30.05S
WAHPETON ARPT  CLEAR     54  45  71 SE8       30.08S
$$

 ***** WEATHER ACROSS CENTRAL AND WESTERN NORTH DAKOTA  *****

CITY           SKY/WX    TMP DP  RH WIND       PRES   REMARKS
BISMARCK       CLEAR     60  51  72 SE8       29.94S
6HR MIN TEMP:  58; 6HR MAX TEMP:  70;

MINOT          CLEAR     56  47  71 SE6       29.91S
6HR MIN TEMP:  55; 6HR MAX TEMP:  77;

JAMESTOWN      CLEAR     59  49  69 S10       30.00S
6HR MIN TEMP:  56; 6HR MAX TEMP:  68;

MINOT AFB      CLEAR     53  49  85 SE7       29.90S
GARRISON         N/A     56  50  80 SE6       29.91F
WILLISTON      CLEAR     58  48  69 NE3       29.87S
6HR MIN TEMP:  54; 6HR MAX TEMP:  80;

DICKINSON      CLEAR     58  50  75 S13       29.87F
6HR MIN TEMP:  58; 6HR MAX TEMP:  71;

HETTINGER      PTCLDY    56  50  80 SE7       29.91S
6HR MIN TEMP:  56; 6HR MAX TEMP:  73;

$$

 *****  OTHER AIRPORT OBSERVATIONS IN OUR AREA  *****

CITY           SKY/WX    TMP DP  RH WIND       PRES   REMARKS
WALHALLA       FAIR      55  48  76 SE3       30.00S
GRAFTON AIRPOR FAIR      50  48  93 SE9       30.02S
VALLEY CITY AR FAIR      55  52  88 S7        30.02S
CANDO          FAIR      52  48  87 SE7       29.98S
CAVALIER APRT  FAIR      50  46  87 S6        30.01S
GWINNER        CLEAR     54  50  87 SE3       30.04F
SHEYENNE NWR     N/A     52  47  84 SE2       29.95S
ROLLA          FAIR      50  48  93 S7        29.99F
 ***** THE ABOVE OBSERVATIONS ARE NON NWS ARE NOT QUALITY
       CONTROLLED AND MAY MIS-REPORT RAIN FOR SNOW...
$$

  *****  WEATHER ACROSS NORTHERN MINNESOTA  *****

CITY           SKY/WX    TMP DP  RH WIND       PRES   REMARKS
FLAG ISLAND    CLEAR     57  54  88 S6        30.05F
WARROAD        CLEAR     55  50  82 S3        30.07S
ROSEAU         CLEAR     54  48  82 S7        30.06S
HALLOCK        CLEAR     54  48  82 SE9       30.02S
THF RVR FALLS  CLEAR     54  48  82 S8        30.07S
6HR MIN TEMP:  54; 6HR MAX TEMP:  68;

BAUDETTE       CLEAR     50  48  93 CALM      30.08F
6HR MIN TEMP:  50; 6HR MAX TEMP:  66;

WASKISH        CLEAR     50  48  93 CALM      30.11S
CROOKSTON      CLEAR     52  48  87 SE7       30.06S
STEPHEN NDAWN    N/A     59  50  72 S10         N/A
GREENBUSH NDAW   N/A     52  48  87 SE5         N/A
$$
  *****  WEATHER ACROSS CENTRAL AND WEST MINNESOTA  *****

CITY           SKY/WX    TMP DP  RH WIND       PRES   REMARKS
FOSSTON        CLEAR     55  52  88 SE6       30.10R
BEMIDJI        CLEAR     47  47  98 CALM      30.12S
PARK RAPIDS    CLEAR     52  48  86 SE5       30.12S
6HR MIN TEMP:  52; 6HR MAX TEMP:  65;

ELBOW LAKE     FAIR      54  48  81 SE8       30.11S
6HR MIN TEMP:  53; 6HR MAX TEMP:  64;

WADENA         CLEAR     48  46  93 CALM      30.12S
DETROIT LAKES  CLEAR     54  50  87 SE5       30.11S
MOORHEAD       CLEAR     57  52  82 S10       30.07S
FERGUS FALLS   CLEAR     55  46  71 S9        30.10S
MORRIS MN      CLEAR     52  48  87 SE8       30.11S
STAPLES        CLEAR     45  45 100 CALM      30.13S VSB 1
$$
  *****  WEATHER ELSEWHERE ACROSS MINNESOTA  *****

CITY           SKY/WX    TMP DP  RH WIND       PRES   REMARKS
DULUTH         CLEAR     55  48  77 W8        30.15S
6HR MIN TEMP:  55; 6HR MAX TEMP:  65;

INTRNTL FALLS  CLEAR     44  42  93 CALM      30.11R
6HR MIN TEMP:  42; 6HR MAX TEMP:  65;

ELY            CLEAR     50  46  87 CALM      30.15R
CLOQUET        CLEAR     48  45  87 W3        30.16S
WHEATON        CLEAR     48  46  93 E5        30.09F
BRAINERD       CLEAR     47  46  97 CALM      30.15S FOG
6HR MIN TEMP:  47; 6HR MAX TEMP:  63;

HIBBING        PTCLDY    42  40  92 CALM      30.16R FOG
6HR MIN TEMP:  42; 6HR MAX TEMP:  62;

ALEXANDRIA     CLEAR     51  47  86 S6        30.14F
6HR MIN TEMP:  50; 6HR MAX TEMP:  66;

SAINT CLOUD    CLEAR     51  48  89 CALM      30.15F
6HR MIN TEMP:  51; 6HR MAX TEMP:  68;

MINNEAPOLIS    CLEAR     57  50  77 SE3       30.18S
6HR MIN TEMP:  56; 6HR MAX TEMP:  69;

$$

  *****  WEATHER ACROSS SOUTH DAKOTA  *****

CITY           SKY/WX    TMP DP  RH WIND       PRES   REMARKS
SIOUX FALLS    PTCLDY    62  49  62 S12       30.13F
6HR MIN TEMP:  60; 6HR MAX TEMP:  68;

BROOKINGS      NOT AVBL
WATERTOWN      CLEAR     54  49  83 S8        30.08F
6HR MIN TEMP:  54; 6HR MAX TEMP:  67;

HURON          MOCLDY    62  50  64 SE9G17    30.05F
6HR MIN TEMP:  62; 6HR MAX TEMP:  72;

SISSETON         N/A     52  49  89 SE7       30.05F
ABERDEEN       CLEAR     61  50  67 S13       30.02F
6HR MIN TEMP:  61; 6HR MAX TEMP:  71;

MITCHELL       CLOUDY    64  52  64 S13       30.08F
PIERRE         CLOUDY    62  55  77 SE18G26   29.97S
6HR MIN TEMP:  62; 6HR MAX TEMP:  73;

MOBRIDGE       CLEAR     64  55  72 S15       29.92F
RAPID CITY     MOCLDY    60  55  83 S6        29.93F
6HR MIN TEMP:  58; 6HR MAX TEMP:  71; 6HR PCP:  0.01;

$$

  *****  SOME WEATHER IN NEARBY STATES *****

CITY           SKY/WX    TMP DP  RH WIND       PRES   REMARKS
GLASGOW MT     CLEAR     60  46  59 SE8       29.83S
6HR MIN TEMP:  58; 6HR MAX TEMP:  79;

GREAT FALLS MT MOCLDY    62  48  60 SW10      29.93S
6HR MIN TEMP:  61; 6HR MAX TEMP:  76;

CHEYENNE WY    PTCLDY    58  43  57 W17G26    30.15S
6HR MIN TEMP:  57; 6HR MAX TEMP:  72;

SCOTTSBLUFF NE CLEAR     54  53  97 E7        30.02F
6HR MIN TEMP:  54; 6HR MAX TEMP:  69;

OMAHA NE       MOCLDY    62  50  64 S7        30.18F
6HR MIN TEMP:  61; 6HR MAX TEMP:  70;

DES MOINES IA  PTCLDY    57  50  77 S7        30.22S
6HR MIN TEMP:  57; 6HR MAX TEMP:  69;

DAVENPORT IA   CLEAR     48  44  86 CALM      30.26S
6HR MIN TEMP:  48; 6HR MAX TEMP:  60;

CHICAGO IL     CLEAR     54  45  71 S3        30.27S
6HR MIN TEMP:  54; 6HR MAX TEMP:  65;

EAU CLAIRE WI  FOG       47  46  97 CALM      30.20R VSB 3/4
6HR MIN TEMP:  47; 6HR MAX TEMP:  63;

LA CROSSE WI   CLEAR     53  51  93 SE6       30.22S
6HR MIN TEMP:  53; 6HR MAX TEMP:  65;

$$

  *****  SOME NATIONAL WEATHER *****

CITY           SKY/WX    TMP DP  RH WIND       PRES   REMARKS
LA GUARDIA NY  PTCLDY    56  39  53 NW13      30.19R
6HR MIN TEMP:  56; 6HR MAX TEMP:  62;

RALEIGH NC     CLOUDY    64  54  69 N7        30.17S
6HR MIN TEMP:  63; 6HR MAX TEMP:  67;

ATLANTA GA     PTCLDY    64  58  80 NE7       30.13R
6HR MIN TEMP:  64; 6HR MAX TEMP:  71;

NEW ORLEANS LA CLEAR     76  56  49 NE15G29   30.04S
6HR MIN TEMP:  76; 6HR MAX TEMP:  84;

OKLAHOMA CITY  MOCLDY    61  50  67 SE5       30.19S
6HR MIN TEMP:  61; 6HR MAX TEMP:  75;

ALBUQUERQUE NM MOCLDY    66  61  84 S7        30.28R
6HR MIN TEMP:  66; 6HR MAX TEMP:  75; 6HR PCP:  0.01;

SALT LAKE CITY MOCLDY    67  52  58 S6        30.10S
6HR MIN TEMP:  66; 6HR MAX TEMP:  76;




USA.gov is the U.S. government's official web portal to all federal, state and local government web resources and services.